Weather Service Report


366 
ASUS41 KBOX 110810
RWRBOX

REGIONAL WEATHER ROUNDUP
NATIONAL WEATHER SERVICE TAUNTON MA
300 AM EST THU FEB 11 2016

NOTE:  "FAIR" INDICATES FEW OR NO CLOUDS BELOW 12,000 FEET WITH NO 
SIGNIFICANT WEATHER AND/OR OBSTRUCTIONS TO VISIBILITY.  THE FOLLOWING 
OBSERVATION LOCATIONS DO NOT REPORT PRESENT WEATHER...PROVINCETOWN...
SMITHFIELD...BLOCK ISLAND...KEENE...AND OXFORD.

MAZALL-110900-
EASTERN MASSACHUSETTS
  
CITY           SKY/WX    TMP DP  RH WIND       PRES   REMARKS
BOSTON         CLEAR     29  18  63 W10       29.65S WCI  20          
BEVERLY        CLEAR     26  16  65 W7        29.64R WCI  18          
LAWRENCE       CLEAR     25  17  72 SW8       29.65R WCI  16          
BEDFORD        CLEAR     24  15  68 W7        29.64S WCI  16          
BLUE HILL        N/A     22  17  81 W12       29.61S WCI  10          
NORWOOD        CLEAR     24  17  74 W5        29.66S WCI  18          
MARSHFIELD     NOT AVBL                                               
PLYMOUTH       PTCLDY    25  18  74 W5        29.65S WCI  19          
TAUNTON        CLEAR     26  17  68 CALM      29.65S                  
NEW BEDFORD    CLEAR     26  18  71 W7        29.65F WCI  18          
$$

MAZALL-110900-
CAPE COD AND THE ISLANDS
  
CITY           SKY/WX    TMP DP  RH WIND       PRES   REMARKS
FALMOUTH       NOT AVBL                                               
HYANNIS        CLEAR     28  21  75 W7        29.63S WCI  21          
CHATHAM        PTCLDY    29  24  82 W5        29.65S WCI  24          
PROVINCETOWN   CLEAR     32  23  69 W18       29.64S WCI  20          
NANTUCKET      PTCLDY    33  22  63 NW12      29.65R WCI  24          
MARTHAS VNYRD  PTCLDY    30  19  63 NW10      29.66R WCI  21          
$$
 
MAZALL-110900-
CENTRAL AND WESTERN MASSACHUSETTS
  
CITY           SKY/WX    TMP DP  RH WIND       PRES   REMARKS
WORCESTER      CLEAR     20  13  74 W10       29.60S WCI   9          
FITCHBURG      PTCLDY    25  15  66 W9        29.64S WCI  15          
ORANGE         PTCLDY    23  14  68 W8        29.64F WCI  14          
SPRINGFIELD    MOCLDY    25  12  58 NW7       29.66S WCI  17          
WESTFIELD      CLOUDY    23  12  62 N7        29.67S WCI  15          
NORTH ADAMS    CLOUDY    22  12  65 W8        29.67S WCI  12          
PITTSFIELD     FLURRIES  21  11  65 W14       29.63R WCI   8          
$$
 
RIZALL-110900-
RHODE ISLAND
  
CITY           SKY/WX    TMP DP  RH WIND       PRES   REMARKS
PROVIDENCE     CLEAR     25  17  72 W6        29.67S WCI  18          
NEWPORT        CLEAR     29  18  63 NW10      29.66S WCI  20          
BLOCK ISLAND   CLEAR     30  19  64 NW8       29.67S WCI  23          
SMITHFIELD     CLEAR     23  14  68 W6        29.63F WCI  16          
WESTERLY       CLEAR     25  19  78 CALM      29.69S                  
$$
 
CTZALL-110900-
CONNECTICUT
  
CITY           SKY/WX    TMP DP  RH WIND       PRES   REMARKS
BRADLEY INTL   CLOUDY    25  15  66 W3        29.68R                  
HARTFORD       CLOUDY    30  16  56 NW6       29.70S WCI  24          
BRIDGEPORT     CLOUDY    30  21  69 W14       29.71S WCI  19          
DANBURY        CLOUDY    25  13  60 W9G20     29.72R WCI  15          
GROTON         CLOUDY    23  21  92 NW5       29.69S WCI  17          
NEW HAVEN      CLOUDY    31  20  63 NW6       29.70S WCI  25          
CHESTER        FLURRIES  28  19  69 NW3       29.68S                  
MERIDEN        FLURRIES  28  20  71 W8        29.70R WCI  20          
WILLIMANTIC    CLOUDY    26  15  63 NW3       29.68R                  
OXFORD         CLOUDY    27  14  59 W6        29.68S WCI  20          
$$

MEZ002-015-021-024-NHZ003-005-008-011-012-014-VTZ005-008-110900-
NORTHERN NEW ENGLAND
  
CITY           SKY/WX    TMP DP  RH WIND       PRES   REMARKS
PORTLAND ME    CLOUDY    27  17  66 W9        29.60R WCI  18          
BANGOR ME      CLOUDY    26  21  81 NW17      29.55S WCI  13          
CONCORD NH     CLEAR     21  13  71 NW5       29.63R WCI  15          
MANCHESTER NH  CLEAR     18  16  92 CALM      29.62S                  
NASHUA NH      CLEAR     19  18  93 W3        29.64S                  
PORTSMOUTH NH  PTCLDY    25  16  66 W8        29.61S WCI  17          
JAFFREY NH     PTCLDY    15  13  91 CALM      29.59F                  
KEENE NH       MOCLDY    19  12  73 CALM      29.64S                  
BURLINGTON VT  LGT SNOW  22  17  81 N6        29.65S WCI  14          
MT. WASHINGTON FOG       -2  -2 100 W33         N/A  VSB 1/16WCI -30  
$$

NYZ052-076-110900-
EASTERN NEW YORK
  
CITY           SKY/WX    TMP DP  RH WIND       PRES   REMARKS
ALBANY         FLURRIES  25  11  55 W12       29.72R WCI  14          
NEW YORK CITY  LGT SNOW  27  19  74 NW15G23   29.78R WCI  15          
$$
 
ANZALL-110900-
MARINE OBSERVATIONS
  
STATION/POSITION TIME  TEMP    WIND        PRES    VSBY  WAVE
                       AIR SEA DIR/SP/G                  HT/PER
                 (UTC) (F)     (DEG/KT/KT) (MB)    (MI)  (FT/S)
BOSTON BUOY      0750   33 41  290/ 17/ 21 1003.2R         3/11
BUZZARDS BAY     0700          310/ 19/ 21 1005.1F
NANTUCKET SOUND  0750   34 41  300/ 17/ 21 1003.3S         2/ 4
MASS BAY-STELLWA NOT AVBL
ISLE OF SHOALS   0800   29     280/ 18/ 20 1002.1R
S OF BLOCK IS    NOT AVBL
$$

......................KEY.........................
  SKY/WX - SKY CONDITION/PRESENT WEATHER
  TMP    - TEMPERATURE IN FAHRENHEIT
  DWPT   - DEWPOINT IN FAHRENHEIT
  RH     - RELATIVE HUMIDITY IN PERCENT
  WIND   - DIRECTION AND SPEED IN MPH
  PRES   - MEAN SEA LEVEL PRESSURE IN INCHES OF HG
  WCI    - WIND CHILL INDEX
  VSB    - VISIBILITY IN MILES
  HX     - HEAT INDEX
  TC     - TEMPERATURE IN CELSIUS
  VRB    - VARIABLE WIND DIRECTION
  N/A    - NOT AVAILABLE
  

Return to Home page


Western Regional Climate Center, wrcc@dri.edu